This demonstration page uses our WeatherBlox Daily Observations layout. Learn more.

Left ArrowRight Arrow

Hourly Observations for December 5, 2022

Temp ( °F °C ) Dew Point ( °F °C ) Humidity (%) Winds ( mph kmh ) Pressure ( in mb ) Visibility ( mi km ) Precip ( " mm )
12:53 am 00:53 Clear 48 8.9 39 3.9 71 71 SSE 6 9 29.93 1014 10 16 0.00 0.00
1:53 am 01:53 Clear 48 8.9 40 4.4 73 73 S 3 6 29.94 1014 10 16 0.00 0.00
2:53 am 02:53 Clear 48 8.9 40 4.4 73 73 ENE 3 6 29.92 1013 10 16 0.00 0.00
3:53 am 03:53 Mostly Cloudy 49 9.4 41 5 74 74 SE 5 7 29.91 1013 10 16 0.00 0.00
4:53 am 04:53 Mostly Clear 50 10 43 6.1 77 77 ESE 3 6 29.89 1012 10 16 0.00 0.00
5:53 am 05:53 Clear 49 9.4 44 6.7 83 83 ESE 5 7 29.88 1012 10 16 0.00 0.00
6:53 am 06:53 Clear 51 10.6 44 6.7 77 77 SW 7 11 29.87 1011 10 16 0.00 0.00
7:53 am 07:53 Sunny 60 15.6 50 10 69 69 SW 8 13 29.87 1012 10 16 0.00 0.00
8:53 am 08:53 Sunny 60 15.6 50 10 69 69 SW 14 22 29.88 1012 10 16 0.00 0.00
9:53 am 09:53 Sunny 63 17.2 50 10 63 63 WSW 8 13 29.89 1012 10 16 0.00 0.00
10:53 am 10:53 Sunny 67 19.4 50 10 55 55 WSW 15 24 29.89 1012 10 16 0.00 0.00
11:53 am 11:53 Sunny 73 22.8 50 10 44 44 WSW 23 37 29.85 1011 10 16 0.00 0.00
12:53 pm 12:53 Sunny 73 22.8 50 10 44 44 WSW 18 30 29.82 1010 10 16 0.00 0.00
1:53 pm 13:53 Sunny 77 25 50 10 39 39 W 20 31 29.78 1008 10 16 0.00 0.00
2:53 pm 14:53 Sunny 74 23.3 50 10 43 43 SW 10 17 29.76 1008 10 16 0.00 0.00
3:53 pm 15:53 Sunny 78 25.6 50 10 37 37 WSW 16 26 29.75 1007 10 16 0.00 0.00
4:53 pm 16:53 Sunny 75 23.9 49 9.4 40 40 WSW 10 17 29.75 1008 10 16 0.00 0.00
5:53 pm 17:53 Clear 72 22.2 50 10 46 46 S 3 6 29.75 1008 10 16 0.00 0.00
6:53 pm 18:53 Clear 67 19.4 51 10.6 57 57 SSE 7 11 29.77 1008 10 16 0.00 0.00
7:53 pm 19:53 Clear 68 20 51 10.6 55 55 W 9 15 29.77 1008 10 16 0.00 0.00
8:53 pm 20:53 Clear 66 18.9 51 10.6 59 59 WSW 3 6 29.78 1008 10 16 0.00 0.00
9:53 pm 21:53 Clear 64 17.8 50 10 60 60 SW 8 13 29.78 1008 10 16 0.00 0.00
10:53 pm 22:53 Clear 64 17.8 49 9.4 58 58 WSW 9 15 29.78 1008 10 16 0.00 0.00
11:53 pm 23:53 Clear 61 16.1 49 9.4 64 64 W 6 9 29.78 1008 10 16 0.00 0.00

Powered by AerisWeather